Address 0x856b762d46274ef1d696103e5fb2af2afee91ecb 9

 
 
Txn Hash Method
Block
From
To
Value [Txn Fee]
0x7aea4993b97a1e2e90fb56907e2ac714e84ab9828465664457b541e096b4d208Margin Trade259775632022-03-15 18:30:37258 days 3 hrs ago0x856b762d46274ef1d696103e5fb2af2afee91ecbOUT 0x5bfac8a40782398fb662a69bac8a89e6edc574b10 MATIC0.03659724 36
0x3bbff68b6842eb63fc8d501523ba8fcbbc4b33897f0c6cf8c126430e74f8476dApprove259775382022-03-15 18:28:57258 days 3 hrs ago0x856b762d46274ef1d696103e5fb2af2afee91ecbOUT Wrapped Ether0 MATIC0.001507531079 32.272886621
0xd97444903d25d3875d23c7f13fc697c7a616b54fcef70e95cbc5211c0f374fe4Prepare249593752022-02-15 5:58:36286 days 15 hrs ago0x856b762d46274ef1d696103e5fb2af2afee91ecbOUT xPollinate: Transaction Manager 20 MATIC0.003666374932 30.069999771
0x6054f8a444a043e373abbf745125237d958fbaa5cad7d2d534594f5d444610c0Approve249593502022-02-15 5:57:24286 days 15 hrs ago0x856b762d46274ef1d696103e5fb2af2afee91ecbOUT Wrapped Ether0 MATIC0.001484879883 32.010000081
0x273bb60d7e239a918f00accae2e3af474ce36407688ef11ac5e2b81ffa672ef2Multicall249591872022-02-15 5:50:00286 days 15 hrs ago0x856b762d46274ef1d696103e5fb2af2afee91ecbOUTUniswap V3: Router 269 MATIC0.00312186869 29.167892394
0x4f2df6b06c07b005c9f37cecdc735a091b6163e998aaca7ed86e4cd1d9e85ed5Transfer249589342022-02-15 5:41:08286 days 15 hrs ago0x082489a616ab4d46d1947ee3f912e080815b08da IN 0x856b762d46274ef1d696103e5fb2af2afee91ecb69.4304 MATIC0.00126294017360.14000825
0xdf4db106a70b5e11302136096f138790889122f5d2f1616da6cd77e3f79bb2feClaim246851862022-02-08 6:18:24293 days 15 hrs ago0x856b762d46274ef1d696103e5fb2af2afee91ecbOUT 0x01d4fce57ddd4004494d56804fac0e1308b20aca0 MATIC0.002766007079 29.744890141
0xb9a9782dbc13c67e7db26eb4bede942d6528be0a1b62dbdc9b3e9e31b24324b8Swap Exact Token...236055182022-01-11 19:35:52321 days 1 hr ago0x856b762d46274ef1d696103e5fb2af2afee91ecbOUT QuickSwap: Router0 MATIC0.0033074130
0x2cba9a34d88b0f37d1e895a3643f5ed9f184a40993fbe34bf645d29cca11a8b9Remove Liquidity236054872022-01-11 19:34:46321 days 1 hr ago0x856b762d46274ef1d696103e5fb2af2afee91ecbOUT QuickSwap: Router0 MATIC0.0050535930
0xa29d211a65ac0ce4191b601a3e0c0c9391b9e31d1512fbef57cc5335d4103ee6Approve236054822022-01-11 19:34:36321 days 1 hr ago0x856b762d46274ef1d696103e5fb2af2afee91ecbOUT 0x5e06e1da9b7cb3ddd0df596003ad4cb852f519550 MATIC0.0013915830
0x77dd17b33a42893daeecf27e5afc72c01659ce1e60d33a6f402245492e6df957Add Liquidity236052822022-01-11 19:27:44321 days 2 hrs ago0x856b762d46274ef1d696103e5fb2af2afee91ecbOUT QuickSwap: Router0 MATIC0.0053905230
0x0eb82ad943232bd9d38a3d83b9b959615d8d37dd2fad27e83e2b9a8822413129Approve236052762022-01-11 19:27:32321 days 2 hrs ago0x856b762d46274ef1d696103e5fb2af2afee91ecbOUT USD Coin0 MATIC0.0017533830
0xe6c3b7effac8757aaee4402f24aa862ce6187c9ddba4743784aa4f71131fcfdbApprove236052742022-01-11 19:27:28321 days 2 hrs ago0x856b762d46274ef1d696103e5fb2af2afee91ecbOUT Million: MM Token0 MATIC0.0015621630
0x6c3c1084d5f950d099ac67f016fba8ebbfb41ef31e607683730449c680bbb657Swap Exact Token...236052572022-01-11 19:26:54321 days 2 hrs ago0x856b762d46274ef1d696103e5fb2af2afee91ecbOUT QuickSwap: Router0 MATIC0.0053518830
0xe93e947f0a8d1c160654e23ffc8fbf3cd54af215fb11a4b856db16d08bc69726Swap Exact Token...236052352022-01-11 19:25:42321 days 2 hrs ago0x856b762d46274ef1d696103e5fb2af2afee91ecbOUT QuickSwap: Router0 MATIC0.0077433330
0xafabb8e8bd55a231467d6bfddc5a4b872133fe30bb499498c8ac780ec3c80442Approve236052282022-01-11 19:25:14321 days 2 hrs ago0x856b762d46274ef1d696103e5fb2af2afee91ecbOUT Mapper: USDT Stablecoin0 MATIC0.0015621630
0x5377b36ca3e020848c2a7a3aa8d006569c17ee9aa31214da348ebb5d0898cb09Call Agreement232511042022-01-02 6:26:31330 days 15 hrs ago0x856b762d46274ef1d696103e5fb2af2afee91ecbOUT Superfluid: Host0 MATIC0.0080797830
0xaabe3be4a89545ad011e15b0ee81ba76d3e5221309fda869dfb315cbf046b920Upgrade By ETH232510852022-01-02 6:25:53330 days 15 hrs ago0x856b762d46274ef1d696103e5fb2af2afee91ecbOUT Superfluid: MATICx Token1 MATIC0.0015247530
0x1cef12cbaafad9aa4ac4e69b8eb86a38daf8aa7ed54a440944f3c9f483ed18ddExecute Trades232510352022-01-02 6:24:09330 days 15 hrs ago0x856b762d46274ef1d696103e5fb2af2afee91ecbOUT 0xf2e4209afa4c3c9eaa3fb8e12eed25d8f328171c0.02 MATIC0.0062574330
0x94c625b6d728a53c03d4dd4e2eb77b452f3c90bbe50aad45487e4b73ab9c6f0cTransfer232510192022-01-02 6:23:37330 days 15 hrs ago0x856b762d46274ef1d696103e5fb2af2afee91ecbOUT Superfluid: MATICx Token0 MATIC0.0047045430
0xd354b7b681ad17cf85a26e4c8026666cf7164045fd6c9fa900b3b78db3e48fb7Upgrade By ETH232509772022-01-02 6:22:09330 days 15 hrs ago0x856b762d46274ef1d696103e5fb2af2afee91ecbOUT Superfluid: MATICx Token0.02 MATIC0.0020377530
0x4fc02488f1194fa7974dff35184edb52cb530978b0e12735eada083bdec0c35cWrap And Transfe...232508302022-01-02 6:17:07330 days 15 hrs ago0x856b762d46274ef1d696103e5fb2af2afee91ecbOUT Wormhole: Token Bridge0.02 MATIC0.0024433830
0x53a143443bc36595079b3b6ed98a66007ee110148764bdc4cd3c0ea01b2f6c4cDeposit232506992022-01-02 6:10:53330 days 15 hrs ago0x856b762d46274ef1d696103e5fb2af2afee91ecbOUT Polygon: WMATIC Token0.02 MATIC0.0008382330
0x7def0a7047a2516ea634fe625c90eea48480739f68b8e06e32cff1aa662dbfcaDeposit232506582022-01-02 6:09:03330 days 15 hrs ago0x856b762d46274ef1d696103e5fb2af2afee91ecbOUT 0xe11678341625cd88bb25544e39b2c62cedcc83f10 MATIC0.0024525930
0x404ba84dd004c435367fd20d0b1e053b01b3df5869e15ba1431f07a15056c78fApprove232506432022-01-02 6:08:33330 days 15 hrs ago0x856b762d46274ef1d696103e5fb2af2afee91ecbOUT Polygon: WMATIC Token0 MATIC0.0013821930
[ Download CSV Export 
Latest 1 internal transaction
Parent Txn Hash Block From To Value
0x686b52120efb03270e0737ea3c9885c3b112ec72d7e66d97e20c8898d1cd7202232351952022-01-01 20:46:02331 days 46 mins ago Disperse.app: Matic Network0x856b762d46274ef1d696103e5fb2af2afee91ecb0.16 MATIC
[ Download CSV Export 
Loading

Contract Name:
0 MATIC

Compiler Version
0

Optimization Enabled:
0 MATIC

Other Settings:
-NA-
Block Transaction Gas Used Reward
Age Block Fee Address BC Fee Address Voting Power Jailed Incoming
Block Uncle Number Difficulty Gas Used Reward
Loading
Loading
Make sure to use the "Vote Down" button for any spammy posts, and the "Vote Up" for interesting conversations.